User: anonymous   Login
Location: Sunkist
(34.0772°N, 117.1909°W)
Time: 08:17:35
(UTC+00:00)
Language:

ARGOS - Orbit

View from above orbital plane
View from above orbital plane
View from above satellite
View from above satellite

Ground track
Ground track

The orbit data is extracted from the following two-line orbital elements,

1 25634U 99008A   24205.92750545  .00000256  00000-0  14074-3 0  9998
2 25634  98.4205 190.9587 0009029 249.0491 110.9720 14.19688408315927
Epoch (UTC): 23 July 2024 22:15:36
Eccentricity: 0.0009029
inclination: 98.4205°
perigee height: 820 km
apogee height: 833 km
right ascension of ascending node: 190.9587°
argument of perigee: 249.0491°
revolutions per day: 14.19688408
mean anomaly at epoch: 110.9720°
orbit number at epoch: 31592

The dashed part of the orbit path shows where the satellite is in the earth's shadow,  

DLR